ASTRA 2D

Last updated on Nov. 14, 2019, 4:21 a.m. UTC

1 26638U 00081A   19317.62344994  .00000044  00000-0  00000+0 0  9993
2 26638   5.3594  65.8214 0001886 161.6039  54.6562  1.00270137 69248
UTC
Height (km)
Latitude
Longitude
Inclination
Orbital Period
UTC large
Height (km)
Speed (km/s)
/
Latitude / Longitude
Inclination (degrees)
Orbital Period (minutes)
Azimuth
Elevation
Range (km)
Doppler Factor
iOS Compass Heading
iOS Angle

Next 30 passes for location: Hong Kong

Rise time Rise Azimuth (degrees) Set time Set Azimuth (degrees) Duration Max altitude (degrees)

No matching passes for this satellites